BON102 FACT-FAOR

Flight info

Callsign BON102
Flight time 1h 48m
Altitude 41000
Route TETAN1A TETAN UZ2 NIBEX NIBEX1D
Aircraft B772/H-SDE2E3FGHIJ5LORVWXY/LB1D1

Departure

Time 2026-05-05 17:27
Airport Cape Town International Airport (FACT)

Arrival

Time 2026-05-05 19:16
Airport O.R. Tambo International Airport (FAOR)
Time Latitude Longitude Altitude Speed Heading
2026-05-05 16:58 -33.96646 18.59716 161 ft 0 kts 256°
2026-05-05 17:20 -33.96645 18.59718 161 ft 1 kts 256°
2026-05-05 17:20 -33.96644 18.59722 161 ft 0 kts 256°
2026-05-05 17:20 -33.96643 18.59726 161 ft 0 kts 256°
2026-05-05 17:20 -33.96643 18.59730 134 ft 0 kts 256°
2026-05-05 17:21 -33.96642 18.59733 134 ft 0 kts 256°
2026-05-05 17:21 -33.96641 18.59740 134 ft 1 kts 256°
2026-05-05 17:21 -33.96639 18.59749 150 ft 1 kts 256°
2026-05-05 17:22 -33.96635 18.59768 161 ft 1 kts 256°
2026-05-05 17:22 -33.96633 18.59778 161 ft 1 kts 256°
2026-05-05 17:22 -33.96631 18.59789 161 ft 2 kts 256°
2026-05-05 17:22 -33.96627 18.59803 161 ft 2 kts 269°
2026-05-05 17:23 -33.96629 18.59817 161 ft 2 kts 299°
2026-05-05 17:23 -33.96635 18.59827 161 ft 0 kts 325°
2026-05-05 17:24 -33.96630 18.59823 161 ft 5 kts 327°
2026-05-05 17:24 -33.96550 18.59790 161 ft 15 kts 346°
2026-05-05 17:24 -33.96445 18.59765 161 ft 15 kts 350°
2026-05-05 17:25 -33.96340 18.59742 161 ft 15 kts 350°
2026-05-05 17:25 -33.96271 18.59728 161 ft 15 kts 353°
2026-05-05 17:25 -33.96161 18.59805 158 ft 8 kts 44°
2026-05-05 17:25 -33.96152 18.59817 158 ft 0 kts 45°
2026-05-05 17:26 -33.96103 18.59875 159 ft 19 kts 45°
2026-05-05 17:26 -33.96044 18.59986 158 ft 15 kts 97°
2026-05-05 17:26 -33.96129 18.60055 159 ft 15 kts 162°
2026-05-05 17:27 -33.96414 18.60146 160 ft 80 kts 166°
2026-05-05 17:27 -33.97198 18.60390 161 ft 151 kts 166°
2026-05-05 17:27 -33.98318 18.60735 705 ft 168 kts 167°
2026-05-05 17:27 -33.99428 18.61073 1865 ft 155 kts 165°
2026-05-05 17:28 -34.00461 18.61479 2485 ft 163 kts 163°
2026-05-05 17:28 -34.01624 18.61948 2671 ft 190 kts 163°
2026-05-05 17:28 -34.02969 18.62484 2934 ft 216 kts 165°
2026-05-05 17:28 -34.04505 18.62999 3183 ft 242 kts 167°
2026-05-05 17:29 -34.06126 18.63703 3495 ft 260 kts 146°
2026-05-05 17:29 -34.07297 18.65381 4149 ft 266 kts 120°
2026-05-05 17:29 -34.08188 18.67372 4828 ft 273 kts 119°
2026-05-05 17:29 -34.09092 18.69396 5687 ft 274 kts 119°
2026-05-05 17:30 -34.10005 18.71428 6484 ft 277 kts 119°
2026-05-05 17:30 -34.10938 18.73484 7191 ft 281 kts 120°
2026-05-05 17:30 -34.11887 18.75562 7912 ft 284 kts 120°
2026-05-05 17:30 -34.12848 18.77657 8654 ft 287 kts 120°
2026-05-05 17:31 -34.13823 18.79779 9380 ft 290 kts 120°
2026-05-05 17:31 -34.14809 18.81918 10078 ft 294 kts 120°
2026-05-05 17:31 -34.15823 18.84115 10478 ft 310 kts 120°
2026-05-05 17:31 -34.16907 18.86466 10828 ft 328 kts 120°
2026-05-05 17:32 -34.17888 18.88977 11341 ft 337 kts 105°
2026-05-05 17:32 -34.17970 18.91823 12081 ft 345 kts 78°
2026-05-05 17:32 -34.17082 18.94513 13129 ft 348 kts 57°
2026-05-05 17:32 -34.15513 18.96734 14116 ft 351 kts 40°
2026-05-05 17:33 -34.13614 18.98594 15026 ft 354 kts 36°
2026-05-05 17:33 -34.11631 19.00383 15973 ft 357 kts 34°
2026-05-05 17:33 -34.09622 19.02161 16943 ft 360 kts 34°
2026-05-05 17:33 -34.07593 19.03961 17867 ft 364 kts 34°
2026-05-05 17:34 -34.05546 19.05796 18709 ft 369 kts 34°
2026-05-05 17:34 -34.03481 19.07663 19501 ft 373 kts 34°
2026-05-05 17:34 -34.01400 19.09558 20281 ft 377 kts 34°
2026-05-05 17:34 -34.00017 19.10824 20855 ft 379 kts 34°
2026-05-05 17:35 -33.97860 19.12799 21653 ft 383 kts 34°
2026-05-05 17:35 -33.95728 19.14753 22431 ft 387 kts 34°
2026-05-05 17:35 -33.93572 19.16731 23226 ft 391 kts 34°
2026-05-05 17:35 -33.91395 19.18726 23924 ft 396 kts 34°
2026-05-05 17:36 -33.89193 19.20741 24582 ft 400 kts 34°
2026-05-05 17:36 -33.86968 19.22779 25255 ft 404 kts 34°
2026-05-05 17:36 -33.84721 19.24836 25911 ft 408 kts 34°
2026-05-05 17:36 -33.82477 19.26886 26540 ft 413 kts 34°
2026-05-05 17:37 -33.80179 19.28985 27165 ft 417 kts 34°
2026-05-05 17:37 -33.78611 19.30417 27592 ft 420 kts 34°
2026-05-05 17:37 -33.75490 19.33266 28367 ft 425 kts 33°
2026-05-05 17:37 -33.73116 19.35431 28899 ft 431 kts 34°
2026-05-05 17:38 -33.70755 19.37583 29471 ft 435 kts 34°
2026-05-05 17:38 -33.68336 19.39786 30014 ft 438 kts 33°
2026-05-05 17:38 -33.65937 19.42075 30460 ft 444 kts 40°
2026-05-05 17:38 -33.63857 19.44860 30855 ft 452 kts 48°
2026-05-05 17:39 -33.61931 19.47866 31275 ft 456 kts 50°
2026-05-05 17:39 -33.60030 19.50934 31650 ft 460 kts 50°
2026-05-05 17:39 -33.58110 19.54018 32039 ft 463 kts 50°
2026-05-05 17:39 -33.56153 19.57109 32397 ft 467 kts 49°
2026-05-05 17:40 -33.54164 19.60196 32773 ft 470 kts 49°
2026-05-05 17:40 -33.52140 19.63297 33136 ft 474 kts 49°
2026-05-05 17:40 -33.50094 19.66410 33487 ft 477 kts 48°
2026-05-05 17:40 -33.48028 19.69544 33826 ft 481 kts 48°
2026-05-05 17:41 -33.45947 19.72699 34135 ft 484 kts 48°
2026-05-05 17:41 -33.43855 19.75872 34381 ft 487 kts 48°
2026-05-05 17:41 -33.41749 19.79067 34649 ft 490 kts 48°
2026-05-05 17:41 -33.39626 19.82285 34899 ft 493 kts 49°
2026-05-05 17:42 -33.37498 19.85511 35168 ft 495 kts 49°
2026-05-05 17:42 -33.35364 19.88742 35494 ft 495 kts 49°
2026-05-05 17:42 -33.33229 19.91973 35840 ft 495 kts 49°
2026-05-05 17:42 -33.31091 19.95202 36180 ft 495 kts 49°
2026-05-05 17:43 -33.28931 19.98406 36502 ft 494 kts 46°
2026-05-05 17:43 -33.26674 20.01497 36795 ft 494 kts 45°
2026-05-05 17:43 -33.24376 20.04554 37121 ft 494 kts 45°
2026-05-05 17:43 -33.22067 20.07589 37439 ft 494 kts 45°
2026-05-05 17:44 -33.19749 20.10628 37742 ft 494 kts 45°
2026-05-05 17:44 -33.17438 20.13665 38059 ft 494 kts 45°
2026-05-05 17:44 -33.15128 20.16710 38366 ft 494 kts 45°
2026-05-05 17:44 -33.12823 20.19755 38670 ft 495 kts 45°
2026-05-05 17:45 -33.10520 20.22802 38924 ft 494 kts 45°
2026-05-05 17:45 -33.08220 20.25848 39193 ft 494 kts 45°
2026-05-05 17:45 -33.05925 20.28885 39460 ft 493 kts 45°
2026-05-05 17:45 -33.03655 20.31886 39690 ft 493 kts 45°
2026-05-05 17:46 -33.01332 20.34954 39920 ft 493 kts 45°
2026-05-05 17:46 -32.99064 20.37948 40167 ft 492 kts 45°
2026-05-05 17:46 -32.96771 20.40970 40417 ft 492 kts 45°
2026-05-05 17:46 -32.94445 20.44033 40634 ft 492 kts 45°
2026-05-05 17:47 -32.92155 20.47045 40859 ft 491 kts 45°
2026-05-05 17:47 -32.89886 20.50028 40970 ft 493 kts 45°
2026-05-05 17:47 -32.87580 20.53056 41019 ft 495 kts 45°
2026-05-05 17:48 -32.82970 20.59105 41053 ft 491 kts 45°
2026-05-05 17:48 -32.78402 20.65090 41060 ft 487 kts 45°
2026-05-05 17:49 -32.73855 20.71035 41067 ft 486 kts 45°
2026-05-05 17:49 -32.69304 20.76975 41066 ft 486 kts 45°
2026-05-05 17:50 -32.64743 20.82918 41069 ft 488 kts 45°
2026-05-05 17:50 -32.60163 20.88876 41064 ft 490 kts 44°
2026-05-05 17:51 -32.55567 20.94847 41062 ft 491 kts 44°
2026-05-05 17:51 -32.50957 21.00827 41053 ft 492 kts 44°
2026-05-05 17:52 -32.46338 21.06807 41050 ft 492 kts 44°
2026-05-05 17:52 -32.41725 21.12772 41048 ft 491 kts 44°
2026-05-05 17:53 -32.37108 21.18731 41037 ft 491 kts 44°
2026-05-05 17:53 -32.32493 21.24677 41040 ft 490 kts 44°
2026-05-05 17:54 -32.27887 21.30602 41038 ft 489 kts 44°
2026-05-05 17:54 -32.23309 21.36482 41039 ft 489 kts 44°
2026-05-05 17:55 -32.18677 21.42421 41038 ft 488 kts 44°
2026-05-05 17:55 -32.14102 21.48277 41034 ft 488 kts 44°
2026-05-05 17:56 -32.09500 21.54159 41033 ft 488 kts 44°
2026-05-05 17:56 -32.04893 21.60039 41028 ft 488 kts 44°
2026-05-05 17:57 -32.00285 21.65909 41029 ft 488 kts 44°
2026-05-05 17:57 -31.95674 21.71776 41026 ft 488 kts 44°
2026-05-05 17:58 -31.91064 21.77630 41027 ft 487 kts 44°
2026-05-05 17:58 -31.87233 21.82487 41047 ft 488 kts 45°
2026-05-05 17:59 -31.82619 21.88331 41036 ft 487 kts 44°
2026-05-05 17:59 -31.78010 21.94159 41025 ft 486 kts 44°
2026-05-05 18:00 -31.73406 21.99972 41023 ft 485 kts 44°
2026-05-05 18:00 -31.68806 22.05769 41021 ft 485 kts 44°
2026-05-05 18:01 -31.64216 22.11546 41015 ft 484 kts 44°
2026-05-05 18:01 -31.59616 22.17326 41014 ft 484 kts 44°
2026-05-05 18:02 -31.55023 22.23087 41006 ft 483 kts 43°
2026-05-05 18:02 -31.50431 22.28839 40999 ft 483 kts 43°
2026-05-05 18:03 -31.45844 22.34577 40993 ft 482 kts 43°
2026-05-05 18:03 -31.41255 22.40308 40990 ft 482 kts 43°
2026-05-05 18:04 -31.36671 22.46023 40983 ft 482 kts 43°
2026-05-05 18:04 -31.32083 22.51735 40977 ft 481 kts 43°
2026-05-05 18:05 -31.27501 22.57431 40964 ft 481 kts 43°
2026-05-05 18:05 -31.22916 22.63122 40964 ft 480 kts 42°
2026-05-05 18:06 -31.18334 22.68801 40964 ft 480 kts 42°
2026-05-05 18:06 -31.13752 22.74472 40951 ft 480 kts 42°
2026-05-05 18:07 -31.09172 22.80132 40964 ft 479 kts 42°
2026-05-05 18:07 -31.04593 22.85783 40960 ft 479 kts 42°
2026-05-05 18:08 -31.00008 22.91418 40950 ft 479 kts 41°
2026-05-05 18:08 -30.95414 22.97041 40949 ft 478 kts 41°
2026-05-05 18:09 -30.90855 23.02617 40946 ft 478 kts 41°
2026-05-05 18:09 -30.86240 23.08256 40930 ft 478 kts 41°
2026-05-05 18:10 -30.81682 23.13818 40934 ft 477 kts 41°
2026-05-05 18:10 -30.77103 23.19398 40932 ft 477 kts 41°
2026-05-05 18:11 -30.72526 23.24966 40931 ft 476 kts 41°
2026-05-05 18:11 -30.67950 23.30526 40933 ft 476 kts 41°
2026-05-05 18:12 -30.63373 23.36078 40938 ft 476 kts 41°
2026-05-05 18:12 -30.58794 23.41625 40936 ft 476 kts 40°
2026-05-05 18:13 -30.54211 23.47168 40936 ft 476 kts 40°
2026-05-05 18:13 -30.49631 23.52700 40939 ft 475 kts 40°
2026-05-05 18:14 -30.45047 23.58228 40935 ft 475 kts 40°
2026-05-05 18:14 -30.40468 23.63744 40936 ft 475 kts 40°
2026-05-05 18:15 -30.35883 23.69257 40946 ft 475 kts 40°
2026-05-05 18:15 -30.31334 23.74720 40941 ft 474 kts 40°
2026-05-05 18:16 -30.26753 23.80214 40940 ft 474 kts 39°
2026-05-05 18:16 -30.22174 23.85696 40943 ft 474 kts 39°
2026-05-05 18:17 -30.17594 23.91173 40942 ft 474 kts 39°
2026-05-05 18:17 -30.13015 23.96640 40946 ft 473 kts 39°
2026-05-05 18:18 -30.08435 24.02102 40949 ft 473 kts 39°
2026-05-05 18:18 -30.03850 24.07560 40951 ft 473 kts 39°
2026-05-05 18:19 -29.99272 24.13003 40964 ft 473 kts 38°
2026-05-05 18:19 -29.94688 24.18446 40960 ft 472 kts 38°
2026-05-05 18:20 -29.90112 24.23871 40955 ft 472 kts 38°
2026-05-05 18:20 -29.85539 24.29286 40958 ft 471 kts 38°
2026-05-05 18:21 -29.80971 24.34687 40958 ft 470 kts 38°
2026-05-05 18:21 -29.76409 24.40073 40961 ft 469 kts 38°
2026-05-05 18:22 -29.71851 24.45447 40958 ft 469 kts 37°
2026-05-05 18:22 -29.67298 24.50807 40963 ft 468 kts 37°
2026-05-05 18:23 -29.62745 24.56160 40958 ft 468 kts 37°
2026-05-05 18:23 -29.58197 24.61500 40962 ft 467 kts 37°
2026-05-05 18:24 -29.53656 24.66825 40981 ft 467 kts 37°
2026-05-05 18:24 -29.49111 24.72147 40974 ft 466 kts 36°
2026-05-05 18:25 -29.44568 24.77458 40974 ft 466 kts 36°
2026-05-05 18:25 -29.40029 24.82760 40973 ft 465 kts 36°
2026-05-05 18:26 -29.35522 24.88014 40972 ft 465 kts 36°
2026-05-05 18:26 -29.30990 24.93293 40972 ft 464 kts 36°
2026-05-05 18:27 -29.26463 24.98558 40974 ft 463 kts 36°
2026-05-05 18:27 -29.21940 25.03812 40974 ft 463 kts 36°
2026-05-05 18:28 -29.15157 25.11677 40973 ft 462 kts 36°
2026-05-05 18:28 -29.10638 25.16907 40981 ft 463 kts 35°
2026-05-05 18:29 -29.06111 25.22140 40974 ft 463 kts 35°
2026-05-05 18:29 -29.01575 25.27377 40977 ft 463 kts 35°
2026-05-05 18:30 -28.97044 25.32602 40983 ft 463 kts 35°
2026-05-05 18:30 -28.92510 25.37823 40974 ft 463 kts 35°
2026-05-05 18:31 -28.87973 25.43041 40973 ft 463 kts 35°
2026-05-05 18:31 -28.83434 25.48254 40973 ft 463 kts 35°
2026-05-05 18:32 -28.78897 25.53458 40987 ft 463 kts 35°
2026-05-05 18:32 -28.74354 25.58662 40986 ft 463 kts 34°
2026-05-05 18:33 -28.69811 25.63858 40982 ft 463 kts 34°
2026-05-05 18:33 -28.65261 25.69057 40984 ft 463 kts 34°
2026-05-05 18:34 -28.60711 25.74248 40977 ft 463 kts 34°
2026-05-05 18:34 -28.56191 25.79400 40979 ft 463 kts 34°
2026-05-05 18:35 -28.51637 25.84583 40979 ft 463 kts 34°
2026-05-05 18:35 -28.47086 25.89756 40974 ft 462 kts 34°
2026-05-05 18:36 -28.42538 25.94920 40973 ft 462 kts 34°
2026-05-05 18:36 -28.37988 26.00080 40973 ft 462 kts 34°
2026-05-05 18:37 -28.33439 26.05229 40982 ft 462 kts 34°
2026-05-05 18:37 -28.28884 26.10374 40972 ft 462 kts 34°
2026-05-05 18:38 -28.24335 26.15509 40966 ft 461 kts 33°
2026-05-05 18:38 -28.19790 26.20634 40968 ft 461 kts 33°
2026-05-05 18:39 -28.15242 26.25756 40977 ft 461 kts 33°
2026-05-05 18:39 -28.10690 26.30875 40975 ft 461 kts 33°
2026-05-05 18:40 -28.06132 26.35997 40973 ft 462 kts 33°
2026-05-05 18:40 -28.01561 26.41126 40973 ft 463 kts 33°
2026-05-05 18:41 -27.96984 26.46251 40972 ft 463 kts 33°
2026-05-05 18:41 -27.92404 26.51374 40977 ft 463 kts 33°
2026-05-05 18:42 -27.87817 26.56499 40976 ft 464 kts 33°
2026-05-05 18:42 -27.83217 26.61634 40981 ft 465 kts 33°
2026-05-05 18:43 -27.78615 26.66766 40981 ft 465 kts 33°
2026-05-05 18:43 -27.74006 26.71900 40984 ft 466 kts 33°
2026-05-05 18:44 -27.69385 26.77038 40985 ft 467 kts 33°
2026-05-05 18:44 -27.64759 26.82177 40992 ft 467 kts 33°
2026-05-05 18:45 -27.60130 26.87314 40983 ft 467 kts 33°
2026-05-05 18:45 -27.55496 26.92448 40979 ft 467 kts 33°
2026-05-05 18:46 -27.51638 26.96717 40986 ft 467 kts 33°
2026-05-05 18:46 -27.47001 27.01845 40772 ft 463 kts 33°
2026-05-05 18:47 -27.44719 27.04376 40367 ft 459 kts 33°
2026-05-05 18:47 -27.42443 27.06889 39720 ft 460 kts 32°
2026-05-05 18:47 -27.39412 27.10226 39048 ft 458 kts 32°
2026-05-05 18:47 -27.37880 27.11916 38789 ft 455 kts 32°
2026-05-05 18:48 -27.35637 27.14393 38422 ft 449 kts 32°
2026-05-05 18:48 -27.33422 27.16836 38049 ft 443 kts 32°
2026-05-05 18:48 -27.31236 27.19244 37666 ft 437 kts 32°
2026-05-05 18:48 -27.29077 27.21617 37278 ft 432 kts 32°
2026-05-05 18:49 -27.26939 27.23964 36860 ft 427 kts 32°
2026-05-05 18:49 -27.24822 27.26287 36452 ft 423 kts 32°
2026-05-05 18:49 -27.22731 27.28583 36074 ft 418 kts 32°
2026-05-05 18:49 -27.20655 27.30847 35702 ft 412 kts 31°
2026-05-05 18:50 -27.18529 27.32944 35299 ft 404 kts 28°
2026-05-05 18:50 -27.16424 27.34942 34922 ft 399 kts 28°
2026-05-05 18:50 -27.14307 27.36932 34552 ft 395 kts 28°
2026-05-05 18:50 -27.12212 27.38902 34201 ft 391 kts 28°
2026-05-05 18:51 -27.10140 27.40853 33803 ft 387 kts 28°
2026-05-05 18:51 -27.08084 27.42792 33341 ft 385 kts 28°
2026-05-05 18:51 -27.06010 27.44748 32799 ft 384 kts 28°
2026-05-05 18:51 -27.03964 27.46678 32316 ft 384 kts 28°
2026-05-05 18:52 -27.01929 27.48600 31834 ft 383 kts 28°
2026-05-05 18:52 -26.99923 27.50495 31397 ft 381 kts 28°
2026-05-05 18:52 -26.97904 27.52403 30982 ft 379 kts 28°
2026-05-05 18:52 -26.95888 27.54306 30565 ft 378 kts 29°
2026-05-05 18:53 -26.93883 27.56198 30150 ft 376 kts 29°
2026-05-05 18:53 -26.91884 27.58084 29683 ft 374 kts 29°
2026-05-05 18:53 -26.89903 27.59953 29224 ft 371 kts 29°
2026-05-05 18:53 -26.87935 27.61808 28766 ft 368 kts 29°
2026-05-05 18:54 -26.85985 27.63645 28311 ft 366 kts 29°
2026-05-05 18:54 -26.84041 27.65474 27845 ft 363 kts 29°
2026-05-05 18:54 -26.82109 27.67290 27405 ft 361 kts 28°
2026-05-05 18:54 -26.80153 27.69022 26978 ft 356 kts 26°
2026-05-05 18:55 -26.78188 27.70679 26557 ft 353 kts 26°
2026-05-05 18:55 -26.76220 27.72318 26131 ft 351 kts 25°
2026-05-05 18:55 -26.74265 27.73946 25734 ft 349 kts 25°
2026-05-05 18:55 -26.72327 27.75567 25339 ft 347 kts 26°
2026-05-05 18:56 -26.70396 27.77187 24952 ft 346 kts 26°
2026-05-05 18:56 -26.68476 27.78802 24565 ft 345 kts 26°
2026-05-05 18:56 -26.66567 27.80411 24171 ft 344 kts 26°
2026-05-05 18:56 -26.64659 27.82020 23802 ft 342 kts 26°
2026-05-05 18:57 -26.62767 27.83615 23397 ft 341 kts 26°
2026-05-05 18:57 -26.60865 27.85217 22877 ft 342 kts 26°
2026-05-05 18:57 -26.58976 27.86809 22483 ft 339 kts 26°
2026-05-05 18:57 -26.57099 27.88393 22082 ft 337 kts 27°
2026-05-05 18:58 -26.55232 27.89966 21702 ft 336 kts 27°
2026-05-05 18:58 -26.53370 27.91533 21309 ft 334 kts 27°
2026-05-05 18:58 -26.51516 27.93093 20942 ft 333 kts 27°
2026-05-05 18:58 -26.49671 27.94645 20558 ft 332 kts 27°
2026-05-05 18:59 -26.47830 27.96193 20187 ft 331 kts 27°
2026-05-05 18:59 -26.45994 27.97737 19793 ft 330 kts 27°
2026-05-05 18:59 -26.44184 27.99261 19644 ft 322 kts 27°
2026-05-05 18:59 -26.42422 28.00745 19491 ft 314 kts 27°
2026-05-05 19:00 -26.40704 28.02191 19338 ft 301 kts 27°
2026-05-05 19:00 -26.39113 28.03539 19183 ft 274 kts 26°
2026-05-05 19:00 -26.37644 28.04779 19085 ft 259 kts 26°
2026-05-05 19:00 -26.36212 28.05896 18942 ft 240 kts 14°
2026-05-05 19:01 -26.34659 28.06439 18713 ft 236 kts
2026-05-05 19:01 -26.33062 28.06867 18429 ft 240 kts
2026-05-05 19:01 -26.31445 28.07306 18108 ft 238 kts
2026-05-05 19:01 -26.29839 28.07742 17785 ft 236 kts
2026-05-05 19:02 -26.28248 28.08175 17486 ft 234 kts
2026-05-05 19:02 -26.26674 28.08602 17202 ft 233 kts
2026-05-05 19:02 -26.25101 28.09030 16904 ft 231 kts
2026-05-05 19:02 -26.23543 28.09453 16621 ft 230 kts
2026-05-05 19:03 -26.21997 28.09875 16341 ft 228 kts
2026-05-05 19:03 -26.20456 28.10294 16059 ft 227 kts
2026-05-05 19:03 -26.18906 28.10713 15795 ft 233 kts
2026-05-05 19:03 -26.17310 28.11144 15505 ft 238 kts
2026-05-05 19:04 -26.15706 28.11580 15207 ft 237 kts
2026-05-05 19:04 -26.14105 28.12016 14914 ft 236 kts
2026-05-05 19:04 -26.12511 28.12451 14616 ft 236 kts
2026-05-05 19:04 -26.10920 28.12885 14328 ft 235 kts
2026-05-05 19:05 -26.09333 28.13317 14036 ft 234 kts
2026-05-05 19:05 -26.07749 28.13748 13719 ft 234 kts
2026-05-05 19:05 -26.06172 28.14177 13424 ft 232 kts
2026-05-05 19:05 -26.04627 28.14598 13145 ft 231 kts
2026-05-05 19:06 -26.03072 28.15021 12851 ft 229 kts
2026-05-05 19:06 -26.01525 28.15441 12558 ft 228 kts
2026-05-05 19:06 -25.99986 28.15858 12283 ft 227 kts
2026-05-05 19:06 -25.98454 28.16274 11998 ft 225 kts
2026-05-05 19:07 -25.96935 28.16686 11739 ft 225 kts
2026-05-05 19:07 -25.95394 28.17102 11480 ft 232 kts
2026-05-05 19:07 -25.93809 28.17530 11190 ft 236 kts
2026-05-05 19:07 -25.92223 28.17961 10908 ft 234 kts
2026-05-05 19:08 -25.90719 28.18565 10601 ft 238 kts 25°
2026-05-05 19:08 -25.89517 28.19891 10384 ft 244 kts 46°
2026-05-05 19:08 -25.88655 28.21447 10195 ft 243 kts 56°
2026-05-05 19:08 -25.88031 28.23217 9920 ft 244 kts 68°
2026-05-05 19:09 -25.87730 28.25062 9922 ft 244 kts 75°
2026-05-05 19:09 -25.87513 28.26933 9730 ft 245 kts 80°
2026-05-05 19:09 -25.87614 28.28840 9427 ft 248 kts 96°
2026-05-05 19:09 -25.88139 28.30653 9090 ft 248 kts 122°
2026-05-05 19:10 -25.89371 28.31924 8788 ft 239 kts 159°
2026-05-05 19:10 -25.90920 28.32255 8532 ft 218 kts 191°
2026-05-05 19:10 -25.92387 28.32078 8308 ft 206 kts 196°
2026-05-05 19:10 -25.93745 28.31806 8131 ft 192 kts 201°
2026-05-05 19:11 -25.94981 28.31468 8050 ft 176 kts 204°
2026-05-05 19:11 -25.96139 28.31118 8051 ft 171 kts 205°
2026-05-05 19:11 -25.97286 28.30763 8078 ft 171 kts 205°
2026-05-05 19:11 -25.98433 28.30407 8056 ft 171 kts 205°
2026-05-05 19:12 -25.99583 28.30050 8105 ft 173 kts 205°
2026-05-05 19:12 -26.00752 28.29686 8078 ft 175 kts 205°
2026-05-05 19:12 -26.01945 28.29317 7893 ft 178 kts 205°
2026-05-05 19:12 -26.03113 28.28959 7686 ft 169 kts 204°
2026-05-05 19:13 -26.04245 28.28606 7472 ft 170 kts 204°
2026-05-05 19:13 -26.05386 28.28253 7240 ft 167 kts 204°
2026-05-05 19:13 -26.06463 28.27922 7045 ft 153 kts 204°
2026-05-05 19:13 -26.07474 28.27605 6869 ft 159 kts 205°
2026-05-05 19:14 -26.08399 28.27317 6690 ft 162 kts 204°
2026-05-05 19:14 -26.09453 28.26994 6466 ft 150 kts 204°
2026-05-05 19:14 -26.10440 28.26685 6238 ft 148 kts 201°
2026-05-05 19:14 -26.11374 28.26396 6010 ft 142 kts 202°
2026-05-05 19:15 -26.12286 28.26114 5789 ft 140 kts 201°
2026-05-05 19:15 -26.13200 28.25833 5604 ft 134 kts 198°
2026-05-05 19:15 -26.14084 28.25559 5516 ft 125 kts 198°
2026-05-05 19:15 -26.14806 28.25332 5511 ft 87 kts 195°
2026-05-05 19:16 -26.15238 28.25199 5517 ft 42 kts 191°
2026-05-05 19:16 -26.15446 28.25135 5519 ft 29 kts 196°
2026-05-05 19:16 -26.15640 28.25071 5521 ft 29 kts 199°
2026-05-05 19:16 -26.15814 28.24957 5519 ft 29 kts 221°
2026-05-05 19:17 -26.15928 28.24812 5520 ft 13 kts 264°
2026-05-05 19:17 -26.15895 28.24789 5521 ft 6 kts
2026-05-05 19:17 -26.15839 28.24804 5521 ft 13 kts 14°
2026-05-05 19:17 -26.15722 28.24841 5519 ft 23 kts 17°
2026-05-05 19:18 -26.15557 28.24893 5518 ft 24 kts 15°
2026-05-05 19:18 -26.15395 28.24942 5519 ft 24 kts 14°
2026-05-05 19:18 -26.15231 28.24991 5519 ft 24 kts 16°
2026-05-05 19:18 -26.15067 28.25042 5519 ft 24 kts 15°
2026-05-05 19:19 -26.14903 28.25090 5515 ft 24 kts 14°
2026-05-05 19:19 -26.14738 28.25136 5515 ft 24 kts 14°
2026-05-05 19:19 -26.14593 28.25187 5514 ft 21 kts 17°
2026-05-05 19:19 -26.14452 28.25187 5515 ft 21 kts 326°
2026-05-05 19:20 -26.14345 28.25074 5517 ft 21 kts 315°
2026-05-05 19:20 -26.14239 28.24957 5519 ft 21 kts 315°
2026-05-05 19:20 -26.14134 28.24841 5521 ft 21 kts 315°
2026-05-05 19:20 -26.14028 28.24726 5521 ft 21 kts 315°
2026-05-05 19:21 -26.13921 28.24611 5524 ft 21 kts 316°
2026-05-05 19:21 -26.13815 28.24496 5532 ft 21 kts 315°
2026-05-05 19:21 -26.13709 28.24380 5544 ft 21 kts 315°
2026-05-05 19:21 -26.13604 28.24264 5552 ft 21 kts 316°
2026-05-05 19:22 -26.13497 28.24150 5552 ft 21 kts 316°
2026-05-05 19:22 -26.13391 28.24038 5556 ft 21 kts 316°
2026-05-05 19:22 -26.13285 28.23923 5551 ft 21 kts 316°
2026-05-05 19:22 -26.13179 28.23808 5552 ft 21 kts 315°
2026-05-05 19:23 -26.13156 28.23778 5550 ft 3 kts 303°
2026-05-05 19:23 -26.13146 28.23737 5550 ft 6 kts 268°
2026-05-05 19:23 -26.13169 28.23698 5556 ft 6 kts 217°
2026-05-05 19:23 -26.13207 28.23679 5555 ft 6 kts 195°
2026-05-05 19:24 -26.13253 28.23665 5556 ft 9 kts 195°
2026-05-05 19:24 -26.13323 28.23644 5556 ft 11 kts 195°
2026-05-05 19:24 -26.13394 28.23621 5557 ft 11 kts 197°
2026-05-05 19:24 -26.13433 28.23557 5557 ft 11 kts 266°
2026-05-05 19:25 -26.13430 28.23474 5555 ft 11 kts 275°
2026-05-05 19:25 -26.13443 28.23397 5555 ft 11 kts 225°
2026-05-05 19:25 -26.13478 28.23338 5559 ft 8 kts 264°
2026-05-05 19:25 -26.13478 28.23291 5558 ft 4 kts 271°
2026-05-05 19:26 -26.13478 28.23284 5558 ft 0 kts 273°